Weather History for Blythe, CA

Change the Weather History Date:

Monday, March 17, 2014

  Actual Average Record
Temperature  
Mean Temperature 72 °F -  
Max Temperature 93 °F 79 °F 99 °F (2007)
Min Temperature 52 °F 51 °F 37 °F (2002)
Cooling Degree Days 6    
Growing Degree Days 22 (Base 50)    
Moisture  
Dew Point 17 °F    
Average Humidity 13    
Maximum Humidity 23    
Minimum Humidity 5    
Precipitation  
Precipitation 0.00 in - - ()
Sea Level Pressure  
Sea Level Pressure 29.76 in    
Wind  
Wind Speed 7 mph (WSW)    
Max Wind Speed 21 mph    
Max Gust Speed 28 mph    
Visibility 10 miles    
Events      
Averages and records for this station are not official NWS values.
T = Trace of Precipitation, MM = Missing Value Source: NWS Daily Summary

Daily Weather History Graph

Daily Weather History Graph

Search for Another Location

Airport:

Trip Planner

Search our weather history database for the weather conditions in past years. The results will help you decide how hot, cold, wet, or windy it might be!

Date:

Astronomy

Mar. 17, 2014 Rise Set
Actual Time 6:46 AM PDT 6:48 PM PDT
Civil Twilight 6:21 AM PDT 7:13 PM PDT
Nautical Twilight 5:52 AM PDT 7:42 PM PDT
Astronomical Twilight 5:23 AM PDT 8:11 PM PDT
Moon 8:03 PM PDT (3/17) 7:08 AM PDT (3/17)
Length of Visible Light 12h 51m
Length of Day
12h 01m
Full, 99% of the Moon is Illuminated
Mar 17
Full
Mar 23
Last Quarter
Mar 30
New
Apr 7
First Quarter
Apr 15
Full

Hourly Weather History & Observations

Time (PDT) Temp. Dew Point Humidity Pressure Visibility Wind Dir Wind Speed Gust Speed Precip Events Conditions
12:52 AM 64.0 °F 16.0 °F 16% 30.01 in 10.0 mi South 3.5 mph - N/A   Clear
1:52 AM 55.9 °F 14.0 °F 19% 29.99 in 10.0 mi Calm Calm - N/A   Clear
2:52 AM 54.0 °F 12.9 °F 20% 29.96 in 10.0 mi NNE 3.5 mph - N/A   Clear
3:52 AM 53.1 °F 12.0 °F 20% 29.93 in 10.0 mi NNW 9.2 mph - N/A   Clear
4:52 AM 55.0 °F 12.9 °F 19% 29.91 in 10.0 mi NNW 5.8 mph - N/A   Clear
5:52 AM 53.1 °F 12.9 °F 20% 29.89 in 10.0 mi North 5.8 mph - N/A   Clear
6:52 AM 52.0 °F 15.1 °F 23% 29.89 in 10.0 mi NNW 8.1 mph - N/A   Clear
7:52 AM 55.0 °F 15.1 °F 21% 29.88 in 10.0 mi Calm Calm - N/A   Clear
8:52 AM 66.0 °F 19.9 °F 17% 29.88 in 10.0 mi West 3.5 mph - N/A   Clear
9:52 AM 73.9 °F 25.0 °F 16% 29.87 in 10.0 mi South 6.9 mph - N/A   Clear
10:52 AM 78.1 °F 24.1 °F 14% 29.85 in 10.0 mi South 9.2 mph - N/A   Clear
11:52 AM 82.0 °F 25.0 °F 12% 29.81 in 10.0 mi South 12.7 mph - N/A   Clear
12:52 PM 86.0 °F 18.0 °F 8% 29.75 in 10.0 mi South 12.7 mph - N/A   Clear
1:52 PM 90.0 °F 10.9 °F 5% 29.69 in 10.0 mi WSW 12.7 mph 24.2 mph N/A   Clear
2:52 PM 91.9 °F 12.0 °F 5% 29.64 in 10.0 mi SSW 16.1 mph 24.2 mph N/A   Clear
3:52 PM 91.9 °F 12.9 °F 5% 29.61 in 10.0 mi WSW 15.0 mph 27.6 mph N/A   Clear
4:52 PM 91.0 °F 17.1 °F 7% 29.59 in 10.0 mi WSW 15.0 mph - N/A   Clear
5:52 PM 89.1 °F 21.9 °F 9% 29.57 in 10.0 mi SW 20.7 mph 26.5 mph N/A   Clear
6:52 PM 84.9 °F 23.0 °F 10% 29.56 in 10.0 mi WSW 16.1 mph - N/A   Clear
7:52 PM 81.0 °F 21.9 °F 11% 29.57 in 10.0 mi SW 9.2 mph - N/A   Clear
8:52 PM 80.1 °F 23.0 °F 12% 29.58 in 10.0 mi WSW 13.8 mph - N/A   Clear
9:52 PM 77.0 °F 15.1 °F 10% 29.59 in 10.0 mi West 12.7 mph - N/A   Clear
10:52 PM 75.9 °F 10.0 °F 8% 29.60 in 10.0 mi Variable 3.5 mph - N/A   Clear
11:52 PM 73.9 °F 14.0 °F 10% 29.65 in 10.0 mi North 8.1 mph - N/A   Clear